This is the latest recevied weather packets stored in our database for station/object JA0ZJX-13. If no packets are shown the sender has not sent any weather packets the latest 10 day(s).
| Time | Temp. | Humidity | Pressure | Rain* | Wind** | Luminosity | Snow |
|---|---|---|---|---|---|---|---|
| 1777630422 | 12.78° C | 73% | 995.3 hPa | 0 mm | - | 0 W/m² | - |
| 1777629810 | 12.78° C | 70% | 995.2 hPa | 0.25 mm | - | 0 W/m² | - |
| 1777629205 | 13.33° C | 67% | 995.1 hPa | 0.25 mm | - | 0 W/m² | - |
| 1777628613 | 13.33° C | 67% | 995.2 hPa | 0.25 mm | - | 0 W/m² | - |
| 1777628022 | 12.78° C | 68% | 995.1 hPa | 0.25 mm | - | 0 W/m² | - |
| 1777627412 | 12.78° C | 70% | 994.7 hPa | 0.25 mm | - | 5 W/m² | - |
| 1777626805 | 13.33° C | 73% | 994.4 hPa | 0.25 mm | - | 5 W/m² | - |
| 1777626214 | 14.44° C | 71% | 994 hPa | 0 mm | - | 5 W/m² | - |
| 1777625623 | 15° C | 75% | 993.7 hPa | 0 mm | - | 11 W/m² | - |
| 1777625016 | 14.44° C | 78% | 993.8 hPa | 0.25 mm | - | 30 W/m² | - |
| 1777624406 | 14.44° C | 83% | 993.4 hPa | 0.51 mm | - | 14 W/m² | - |
| 1777623815 | 14.44° C | 85% | 993 hPa | 0.51 mm | - | 11 W/m² | - |
| 1777623205 | 13.89° C | 88% | 993.3 hPa | 0.51 mm | - | 14 W/m² | - |
| 1777622617 | 13.89° C | 89% | 993.1 hPa | 0.51 mm | - | 25 W/m² | - |
| 1777622006 | 13.89° C | 88% | 993.1 hPa | 0.51 mm | - | 32 W/m² | - |
| 1777621416 | 13.89° C | 88% | 993.2 hPa | 0.51 mm | - | 19 W/m² | - |
| 1777620804 | 13.89° C | 88% | 993.3 hPa | 0 mm | - | 16 W/m² | - |
| 1777620219 | 13.89° C | 88% | 993.4 hPa | 0 mm | - | 16 W/m² | - |
| 1777619607 | 14.44° C | 88% | 993.5 hPa | 0 mm | - | 23 W/m² | - |
| 1777619016 | 14.44° C | 88% | 993.2 hPa | 0 mm | - | 72 W/m² | - |
| 1777618409 | 14.44° C | 88% | 993.5 hPa | 0 mm | - | 54 W/m² | - |
| 1777617819 | 15° C | 87% | 993.6 hPa | 0 mm | - | 144 W/m² | - |
| 1777617208 | 15° C | 88% | 993.7 hPa | 0 mm | - | 592 W/m² | - |
| 1777616617 | 14.44° C | 88% | 993.8 hPa | 0 mm | - | 592 W/m² | - |
| 1777616011 | 13.89° C | 88% | 994.4 hPa | 0 mm | - | 308 W/m² | - |
* Rain latest hour (hover to see other rain measurements)
** Current wind speed in m/s (hover to see current wind gust speed)